Flag for U.S.A. Weather past 2 weeks in Chesapeake, Virginia, U.S.A.

Now
34 °F

Sunny.


Feels Like: 34 °F
Forecast: 27 / 50 °F
Wind: No wind

Location: Chesapeake Municipal Airport

Current Time: Mar 3, 2015 at 7:51:24 AM

Latest Report: Mar 3, 2015 at 7:15 AM


Visibility: 10 mi

Pressure: 30.42 "Hg

Humidity: 70%

Dew point: 25 °F

Location of ChesapeakeLocation

Historic Weather in Chesapeake — Graph

°F

Chesapeake temperature yesterday

Maximum temperature yesterday: 50 °F (at 2:15 PM)
Minimum temperature yesterday: 32 °F (at 11:35 PM)
Average temperature yesterday: 41 °F

Past Weeks' High & Low Weather Summary

 TemperatureHumidityPressure
High59 °F (Feb 22, 12:15 PM)100% (Feb 16, 11:15 PM)30.83 "Hg (Feb 16, 11:15 PM)
Low9 °F (Feb 20, 6:55 AM)28% (Feb 19, 3:15 PM)29.70 "Hg (Feb 26, 7:15 AM)
Average32 °F74%30.24 "Hg
* Reported Feb 16 6:15 AM — Mar 3 6:35 AM, Chesapeake, Weather by CustomWeather, © 2015

Note: Actual official high and low records may vary slightly from our data, if they occured in-between our weather recording intervals... More about our weather records

Advertising

Chesapeake weather history for previous 24 hours

 ConditionsComfort  
Time TempWeatherWind HumidityBarometerVisibility
6:35 AM
Tue, Mar 3
34 °FSunny.No wind70%30.41 "Hg10 mi
6:15 AM34 °FClear.No wind70%30.43 "Hg10 mi
5:55 AM34 °FClear.No wind65%30.42 "Hg10 mi
5:15 AM30 °FClear.No wind80%30.41 "Hg10 mi
4:55 AM34 °FClear.No wind70%30.42 "Hg10 mi
4:35 AM36 °FClear.No wind56%30.41 "Hg10 mi
4:15 AM36 °FClear.No wind56%30.42 "Hg10 mi
3:55 AM36 °FClear.No wind56%30.41 "Hg10 mi
3:35 AM36 °FClear.No wind56%30.40 "Hg10 mi
3:15 AM37 °FClear.5 mph52%30.38 "Hg10 mi
2:55 AM37 °FClear.5 mph52%30.40 "Hg10 mi
2:35 AM37 °FClear.3 mph52%30.40 "Hg10 mi
2:15 AM37 °FClear.6 mph60%30.40 "Hg10 mi
1:55 AM37 °FClear.6 mph56%30.39 "Hg10 mi
1:15 AM37 °FClear.3 mph52%30.41 "Hg10 mi
12:55 AM36 °FClear.3 mph65%30.42 "Hg10 mi
12:15 AM30 °FClear.No wind100%30.41 "Hg10 mi
11:55 PM
Mon, Mar 2
34 °FClear.No wind87%30.41 "Hg10 mi
11:35 PM32 °FClear.No wind93%30.41 "Hg10 mi
11:15 PM34 °FClear.No wind87%30.42 "Hg10 mi
10:55 PM34 °FClear.No wind81%30.42 "Hg10 mi
10:35 PM34 °FClear.No wind81%30.41 "Hg10 mi
9:55 PM36 °FClear.No wind81%30.40 "Hg10 mi
9:35 PM37 °FClear.No wind75%30.39 "Hg10 mi
9:15 PM37 °FClear.No wind75%30.39 "Hg10 mi
8:55 PM39 °FClear.No wind65%30.39 "Hg10 mi
8:35 PM39 °FClear.No wind65%30.38 "Hg10 mi
8:15 PM41 °FClear.3 mph61%30.38 "Hg10 mi
7:55 PM41 °FClear.No wind61%30.37 "Hg10 mi
7:35 PM41 °FClear.No wind61%30.36 "Hg10 mi
7:15 PM43 °FClear.3 mph61%30.35 "Hg10 mi
6:55 PM43 °FClear.No wind57%30.35 "Hg10 mi
6:35 PM45 °FClear.6 mph53%30.34 "Hg10 mi
6:15 PM45 °FClear.6 mph53%30.33 "Hg10 mi
5:55 PM45 °FSunny.6 mph53%30.32 "Hg10 mi
5:15 PM46 °FSunny.5 mph57%30.31 "Hg10 mi
4:55 PM46 °FSunny.7 mph57%30.30 "Hg10 mi
4:15 PM48 °FSunny.6 mph62%30.29 "Hg10 mi
3:55 PM48 °FSunny.7 mph62%30.29 "Hg10 mi
3:15 PM48 °FSunny.6 mph62%30.28 "Hg10 mi
2:55 PM48 °FSunny.9 mph62%30.27 "Hg10 mi
2:35 PM50 °FSunny.10 mph58%30.27 "Hg10 mi
2:15 PM50 °FSunny.10 mph62%30.26 "Hg10 mi
1:55 PM48 °FSunny.7 mph66%30.26 "Hg10 mi
1:15 PM48 °FScattered clouds.10 mph66%30.27 "Hg10 mi
12:55 PM48 °FScattered clouds.6 mph66%30.27 "Hg10 mi
12:35 PM48 °FPartly sunny.9 mph71%30.27 "Hg10 mi
12:15 PM46 °FPartly sunny.10 mph76%30.27 "Hg10 mi
11:55 AM46 °FScattered clouds.7 mph76%30.27 "Hg10 mi
11:35 AM43 °FMore clouds than sun.5 mph87%30.29 "Hg10 mi
11:15 AM43 °FMostly cloudy.14 mph87%30.29 "Hg10 mi
10:55 AM46 °FPartly sunny.9 mph82%30.26 "Hg10 mi
10:35 AM48 °FBroken clouds.9 mph82%30.24 "Hg10 mi
10:15 AM48 °FBroken clouds.6 mph87%30.21 "Hg10 mi
9:55 AM46 °FMore clouds than sun.6 mph93%30.21 "Hg10 mi
9:35 AM43 °FMostly cloudy.5 mph100%30.20 "Hg10 mi
9:15 AM43 °FMostly cloudy.3 mph93%30.19 "Hg10 mi
8:55 AM41 °FMostly cloudy.5 mph100%30.18 "Hg10 mi
8:35 AM39 °FLow clouds.6 mph100%30.19 "Hg7 mi
8:15 AM39 °FLight rain. Low clouds.6 mph100%30.17 "Hg4 mi
7:55 AM39 °FFog.6 mph100%30.16 "Hg3 mi
7:35 AM37 °FFog.6 mph100%30.16 "Hg2 mi
7:15 AM37 °FFog.3 mph100%30.15 "Hg2 mi
Weather by CustomWeather, © 2015

See weather overviewHow to use our weather pages